YO2LDK-13 Weather Reports


time (UTC)temp
C
wind
direction
speed
KPH
gust
KPH
rain 1hr
cm
rain 24hr
cm
rain mn
cm
humidity
%
barometer
mb
20260507210019 15 282 0.0 0.0 0.00 0.00 0.00 95 1004.4
20260507205519 15 282 0.0 0.0 0.00 0.00 0.00 95 1004.4
20260507205019 15 282 0.0 0.0 0.00 0.00 0.00 95 1004.4
20260507204519 15 282 0.0 0.0 0.00 0.00 0.00 95 1004.1
20260507204020 15 282 0.0 0.0 0.00 0.00 0.00 94 1004.1
20260507203520 15 282 0.0 0.0 0.00 0.00 0.00 94 1004.1
20260507203019 15 282 0.0 0.0 0.00 0.00 0.00 94 1004.4
20260507202520 15 282 0.0 0.0 0.00 0.00 0.00 94 1004.4
20260507202019 15 282 0.0 0.0 0.00 0.00 0.00 93 1004.1
20260507201519 15 282 0.0 0.0 0.00 0.00 0.00 94 1004.1
20260507201019 15 282 0.0 0.0 0.00 0.00 0.00 93 1004.1
20260507200529 15 282 0.0 0.0 0.00 0.00 0.00 93 1004.1
20260507200020 15 282 0.0 0.0 0.00 0.00 0.00 93 1004.1
20260507195519 15 282 0.0 0.0 0.00 0.00 0.00 93 1004.1
20260507195019 15 282 0.0 0.0 0.00 0.00 0.00 93 1004.1
20260507194519 15 282 0.0 0.0 0.00 0.00 0.00 93 1004.1
20260507194021 15 282 0.0 0.0 0.00 0.00 0.00 93 1004.1
20260507193520 15 282 0.0 0.0 0.00 0.00 0.00 94 1004.1
20260507193020 15 282 0.0 0.0 0.00 0.00 0.00 94 1004.1
20260507192519 15 282 0.0 0.0 0.00 0.00 0.00 94 1004.1
20260507192020 15 282 0.0 0.0 0.00 0.00 0.00 94 1004.1
20260507191519 15 282 0.0 0.0 0.00 0.00 0.00 94 1004.1
20260507191020 16 282 0.0 0.0 0.00 0.00 0.00 94 1004.1
20260507190519 16 282 0.0 0.0 0.00 0.00 0.00 94 1004.1
20260507190019 16 282 0.0 0.0 0.00 0.00 0.00 94 1004.1
20260507185521 16 282 0.0 0.0 0.00 0.00 0.00 94 1004.1
20260507185021 16 282 0.0 0.0 0.00 0.00 0.00 94 1004.1
20260507184519 16 282 0.0 0.0 0.00 0.00 0.00 94 1003.7
20260507184020 16 282 0.0 0.0 0.00 0.00 0.00 94 1003.7
20260507183520 16 282 0.0 0.0 0.00 0.00 0.00 94 1003.7
20260507183019 16 282 0.0 0.0 0.00 0.00 0.00 94 1003.7
20260507182526 16 282 0.0 0.0 0.00 0.00 0.00 93 1003.7
20260507182020 16 282 0.0 0.0 0.00 0.00 0.00 93 1003.7
20260507181520 16 282 0.0 0.0 0.00 0.00 0.00 92 1003.7
20260507181021 16 282 0.0 0.0 0.00 0.00 0.00 92 1003.7
20260507180520 16 282 0.0 0.0 0.00 0.00 0.00 92 1003.7
20260507180021 17 282 0.0 0.0 0.00 0.00 0.00 92 1003.7
20260507175519 17 282 0.0 0.0 0.00 0.00 0.00 91 1003.7
20260507175020 17 282 0.0 0.0 0.00 0.00 0.00 91 1003.4
20260507174519 17 282 0.0 0.0 0.00 0.00 0.00 91 1003.4
20260507174023 17 282 0.0 0.0 0.00 0.00 0.00 91 1003.4
20260507173519 17 282 0.0 0.0 0.00 0.00 0.00 91 1003.4
20260507173020 17 282 0.0 0.0 0.00 0.00 0.00 90 1003.4
20260507172519 17 282 0.0 0.0 0.00 0.00 0.00 89 1003.4
20260507172020 17 282 0.0 0.0 0.00 0.00 0.00 89 1003.4
20260507171521 17 282 0.0 0.0 0.00 0.00 0.00 88 1003.4
20260507171021 17 282 0.0 0.0 0.00 0.00 0.00 87 1003.4
20260507170519 18 282 0.0 0.0 0.00 0.00 0.00 86 1003.4
20260507170019 18 282 0.0 0.0 0.00 0.00 0.00 86 1003.4
20260507165519 18 282 0.0 0.0 0.00 0.00 0.00 85 1003.4
20260507165019 18 282 0.0 0.0 0.00 0.00 0.00 86 1003.4
20260507164519 18 282 0.0 0.0 0.00 0.00 0.00 85 1003.4
20260507164020 18 282 0.0 0.0 0.00 0.00 0.00 84 1003.4
20260507163520 18 282 0.0 0.0 0.00 0.00 0.00 85 1003.4
20260507163019 18 282 0.0 0.0 0.00 0.00 0.00 84 1003.0
20260507162520 18 282 0.0 0.0 0.00 0.00 0.00 84 1003.0
20260507162019 19 282 0.0 0.0 0.00 0.00 0.00 85 1003.4
20260507161519 19 282 0.0 0.0 0.00 0.00 0.00 84 1003.0
20260507161019 19 282 0.0 0.0 0.00 0.00 0.00 85 1003.4
20260507160519 18 282 0.0 0.0 0.00 0.00 0.00 87 1003.4
20260507160020 18 282 0.0 0.0 0.00 0.00 0.00 86 1003.4
20260507155521 18 282 0.0 0.0 0.00 0.00 0.00 86 1003.4
20260507155022 18 282 0.0 0.0 0.00 0.00 0.00 89 1003.4
20260507154520 18 282 0.0 0.0 0.00 0.00 0.00 89 1003.4
20260507154020 18 282 0.0 0.0 0.00 0.00 0.00 89 1003.7
20260507153520 18 282 0.0 0.0 0.00 0.00 0.00 90 1003.4
20260507153021 18 282 0.0 0.0 0.00 0.00 0.00 91 1003.4
20260507152520 18 282 0.0 0.0 0.00 0.00 0.00 91 1003.4
20260507152020 18 282 0.0 0.0 0.00 0.00 0.00 91 1003.4
20260507151521 18 282 0.0 0.0 0.00 0.00 0.00 92 1003.4
20260507151019 18 282 0.0 0.0 0.00 0.00 0.00 92 1003.4
20260507150520 18 282 0.0 0.0 0.00 0.00 0.00 90 1003.4
20260507150020 18 282 0.0 0.0 0.00 0.00 0.00 89 1003.7
20260507145520 18 282 0.0 0.0 0.00 0.00 0.00 88 1003.7
20260507145021 18 282 0.0 0.0 0.00 0.00 0.00 87 1004.1
20260507144520 18 282 0.0 0.0 0.00 0.00 0.00 86 1003.7
20260507144019 18 282 0.0 0.0 0.00 0.00 0.00 84 1003.7
20260507143520 19 282 0.0 0.0 0.00 0.00 0.00 83 1003.7
20260507143020 19 282 0.0 0.0 0.00 0.00 0.00 83 1003.7
20260507142520 19 282 0.0 0.0 0.00 0.00 0.00 81 1003.7
20260507142020 19 282 0.0 0.0 0.00 0.00 0.00 82 1003.7
20260507141520 19 282 0.0 0.0 0.00 0.00 0.00 81 1003.7
20260507141020 19 282 0.0 0.0 0.00 0.00 0.00 81 1003.7
20260507140520 19 282 3.2 3.2 0.00 0.00 0.00 81 1003.7
20260507140022 19 282 0.0 0.0 0.00 0.00 0.00 82 1003.7
20260507135519 19 282 0.0 0.0 0.00 0.00 0.00 82 1004.1
20260507135020 20 282 0.0 0.0 0.00 0.00 0.00 80 1004.1
20260507134520 20 282 0.0 0.0 0.00 0.00 0.00 80 1004.1
20260507134020 20 282 1.6 1.6 0.00 0.00 0.00 79 1004.1
20260507133519 20 282 0.0 0.0 0.00 0.00 0.00 81 1004.1
20260507133020 19 264 0.0 0.0 0.00 0.00 0.00 84 1004.1
20260507132519 19 264 0.0 0.0 0.00 0.00 0.00 82 1004.1
20260507132020 18 264 3.2 3.2 0.00 0.00 0.00 82 1004.1
20260507131520 19 294 0.0 0.0 0.00 0.00 0.00 83 1004.4
20260507131020 18 282 3.2 3.2 0.00 0.00 0.00 84 1004.1
20260507130522 18 282 0.0 0.0 0.00 0.00 0.00 84 1004.4
20260507130020 18 282 0.0 0.0 0.00 0.00 0.00 85 1004.4
20260507125519 18 282 3.2 3.2 0.00 0.00 0.00 84 1004.4
20260507125020 18 288 0.0 0.0 0.00 0.00 0.00 85 1004.4
20260507124519 18 288 0.0 0.0 0.00 0.00 0.00 86 1004.4
20260507124022 18 288 0.0 0.0 0.00 0.00 0.00 85 1004.4
20260507123520 18 288 0.0 0.0 0.00 0.00 0.00 86 1004.4
20260507123019 18 288 4.8 4.8 0.00 0.00 0.00 86 1004.4
20260507122520 18 288 0.0 0.0 0.00 0.00 0.00 87 1004.4
20260507122020 18 270 3.2 3.2 0.00 0.00 0.00 86 1004.4
20260507121519 18 270 3.2 3.2 0.00 0.00 0.00 88 1004.4
20260507121021 18 270 0.0 0.0 0.00 0.00 0.00 88 1004.4
20260507120521 18 270 0.0 0.0 0.00 0.00 0.00 87 1004.4
20260507120020 18 270 3.2 3.2 0.00 0.00 0.00 87 1004.7
20260507115519 18 294 4.8 4.8 0.00 0.00 0.00 86 1004.7
20260507115019 17 276 1.6 1.6 0.00 0.00 0.00 87 1004.4
20260507114519 17 264 3.2 3.2 0.00 0.00 0.00 87 1004.4
20260507114019 17 299 1.6 1.6 0.00 0.00 0.00 86 1004.4
20260507113520 18 316 3.2 3.2 0.00 0.00 0.00 87 1004.7
20260507113019 17 324 0.0 0.0 0.00 0.00 0.00 87 1004.7
20260507112520 18 282 0.0 0.0 0.00 0.00 0.00 86 1004.7
20260507112019 17 288 3.2 3.2 0.00 0.00 0.00 87 1005.1
20260507111519 17 288 1.6 1.6 0.00 0.00 0.00 88 1005.1
20260507111019 17 288 0.0 0.0 0.00 0.00 0.00 89 1005.1
20260507110521 17 288 0.0 0.0 0.00 0.00 0.00 89 1005.1
20260507110021 17 288 0.0 0.0 0.00 0.00 0.00 90 1005.1
20260507105520 17 288 0.0 0.0 0.00 0.00 0.00 90 1005.1
20260507105021 17 288 0.0 0.0 0.00 0.00 0.00 91 1005.1
20260507104520 17 288 3.2 3.2 0.00 0.00 0.00 90 1005.1
20260507104020 17 288 0.0 0.0 0.00 0.00 0.00 91 1005.1
20260507103520 17 288 3.2 3.2 0.00 0.00 0.00 91 1005.1
20260507103022 17 288 0.0 0.0 0.00 0.00 0.00 92 1005.1
20260507102519 17 288 0.0 0.0 0.00 0.00 0.00 92 1005.1
20260507102021 16 288 0.0 0.0 0.00 0.00 0.00 92 1005.1
20260507101519 16 270 1.6 1.6 0.00 0.00 0.00 92 1005.1
20260507101020 17 294 1.6 1.6 0.00 0.00 0.00 93 1005.1
20260507100520 17 276 3.2 3.2 0.00 0.00 0.00 91 1004.7
20260507100020 17 276 0.0 0.0 0.00 0.00 0.00 92 1005.1
20260507095519 17 276 0.0 0.0 0.00 0.00 0.00 92 1005.1
20260507095020 16 276 0.0 0.0 0.00 0.00 0.00 92 1005.1
20260507094521 16 276 0.0 0.0 0.00 0.00 0.00 91 1005.1
20260507094019 16 288 0.0 0.0 0.00 0.00 0.00 92 1005.1
20260507093519 16 288 0.0 0.0 0.00 0.00 0.00 92 1005.1
20260507093019 16 294 0.0 0.0 0.00 0.00 0.00 92 1005.1
20260507092520 16 282 1.6 1.6 0.00 0.00 0.00 93 1005.1
20260507092019 16 283 1.6 1.6 0.00 0.00 0.00 93 1005.1
20260507091519 16 288 0.0 0.0 0.00 0.00 0.00 93 1005.1
20260507091019 16 288 3.2 3.2 0.00 0.00 0.00 93 1005.1
20260507090519 17 282 1.6 1.6 0.00 0.00 0.00 93 1005.1
20260507090019 17 294 0.0 0.0 0.00 0.00 0.00 92 1005.1
20260507085521 17 294 0.0 0.0 0.00 0.00 0.00 92 1005.1
20260507085020 17 294 3.2 3.2 0.00 0.00 0.00 92 1004.7
20260507084519 17 294 0.0 0.0 0.00 0.00 0.00 92 1004.7
20260507084020 17 294 0.0 0.0 0.00 0.00 0.00 91 1004.7
20260507083519 17 294 0.0 0.0 0.00 0.00 0.00 91 1004.7
20260507083019 17 300 3.2 3.2 0.00 0.00 0.00 91 1004.7
20260507082519 17 294 3.2 3.2 0.00 0.00 0.00 91 1004.7
20260507082019 16 300 0.0 0.0 0.00 0.00 0.00 91 1004.4
20260507081519 16 294 4.8 4.8 0.00 0.00 0.00 91 1004.7
20260507081019 16 288 4.8 4.8 0.00 0.00 0.00 91 1004.7
20260507080520 17 288 3.2 3.2 0.00 0.00 0.00 91 1004.7
20260507080021 17 276 1.6 1.6 0.00 0.00 0.00 90 1004.7
20260507075521 16 294 0.0 0.0 0.00 0.00 0.00 91 1004.7
20260507075020 16 288 3.2 3.2 0.00 0.00 0.00 92 1004.4
20260507074520 16 288 3.2 3.2 0.00 0.00 0.00 91 1004.7
20260507074020 16 293 4.8 4.8 0.00 0.00 0.00 91 1004.7
20260507073520 16 294 8.0 9.7 0.00 0.00 0.00 93 1004.7
20260507073020 16 288 3.2 3.2 0.00 0.00 0.00 93 1004.7
20260507072519 16 294 3.2 3.2 0.00 0.00 0.00 94 1004.7
20260507072020 16 282 1.6 1.6 0.00 0.00 0.00 95 1004.7
20260507071520 16 282 0.0 0.0 0.00 0.00 0.00 95 1004.7
20260507071019 16 282 0.0 0.0 0.00 0.00 0.00 95 1004.7
20260507070519 16 282 0.0 0.0 0.00 0.00 0.00 95 1004.7
20260507070020 16 282 3.2 3.2 0.00 0.00 0.00 94 1004.7
20260507065521 16 282 3.2 3.2 0.00 0.00 0.00 95 1004.7
20260507065020 16 282 1.6 1.6 0.00 0.00 0.00 96 1004.7
20260507064519 16 282 3.2 3.2 0.00 0.00 0.00 96 1004.7
20260507064020 16 282 0.0 0.0 0.00 0.00 0.00 96 1004.7
20260507063520 16 282 0.0 0.0 0.00 0.00 0.00 96 1004.7
20260507063020 16 288 1.6 1.6 0.00 0.00 0.00 96 1004.4
20260507062524 16 288 1.6 1.6 0.00 0.00 0.00 96 1004.7
20260507062021 16 288 0.0 0.0 0.00 0.00 0.00 95 1004.4
20260507061521 16 24 0.0 0.0 0.00 0.00 0.00 95 1004.7
20260507061020 16 24 0.0 0.0 0.00 0.00 0.00 96 1004.7
20260507060519 16 24 0.0 0.0 0.00 0.00 0.00 95 1004.4
20260507060020 16 6 0.0 0.0 0.00 0.00 0.00 95 1004.7
20260507055521 16 42 0.0 0.0 0.00 0.00 0.00 94 1004.4
20260507055019 16 42 0.0 0.0 0.00 0.00 0.00 94 1004.4
20260507054519 16 42 0.0 0.0 0.00 0.00 0.00 92 1004.4
20260507054020 16 36 0.0 0.0 0.00 0.00 0.00 90 1004.4
20260507053520 16 74 3.2 3.2 0.00 0.00 0.00 90 1004.1
20260507053019 16 270 0.0 0.0 0.00 0.00 0.00 90 1004.1
20260507052520 16 270 0.0 0.0 0.00 0.00 0.00 90 1004.1
20260507052019 16 270 0.0 0.0 0.00 0.00 0.00 90 1004.1
20260507051520 16 270 0.0 0.0 0.00 0.00 0.00 89 1004.1
20260507051022 16 48 0.0 0.0 0.00 0.00 0.00 88 1003.7
20260507050519 16 24 0.0 0.0 0.00 0.00 0.00 88 1003.7
20260507050020 16 12 0.0 0.0 0.00 0.00 0.00 88 1003.7
20260507045519 16 12 0.0 0.0 0.00 0.00 0.00 88 1003.7
20260507045019 16 12 0.0 0.0 0.00 0.00 0.00 88 1003.4
20260507044519 16 6 0.0 0.0 0.00 0.00 0.00 88 1003.4
20260507044021 16 18 0.0 0.0 0.00 0.00 0.00 88 1003.0
20260507043520 16 18 0.0 0.0 0.00 0.00 0.00 88 1003.4
20260507043019 16 18 0.0 0.0 0.00 0.00 0.00 88 1003.4
20260507042519 16 18 0.0 0.0 0.00 0.00 0.00 88 1003.0
20260507042019 16 30 0.0 0.0 0.00 0.00 0.00 88 1003.0
20260507041519 16 30 0.0 0.0 0.00 0.00 0.00 88 1003.0
20260507041020 16 30 0.0 0.0 0.00 0.00 0.00 88 1003.0
20260507040521 16 30 0.0 0.0 0.00 0.00 0.00 88 1002.7
20260507040020 16 30 0.0 0.0 0.00 0.00 0.00 88 1003.0
20260507035520 15 30 0.0 0.0 0.00 0.00 0.00 88 1002.7
20260507035021 15 30 0.0 0.0 0.00 0.00 0.00 88 1002.7
20260507034519 15 30 0.0 0.0 0.00 0.00 0.00 88 1003.0
20260507034020 15 30 0.0 0.0 0.00 0.00 0.00 87 1002.7
20260507033520 16 30 0.0 0.0 0.00 0.00 0.00 87 1002.4
20260507033019 16 30 0.0 0.0 0.00 0.00 0.00 87 1002.4
20260507032520 16 30 0.0 0.0 0.00 0.00 0.00 86 1002.0
20260507032019 16 30 0.0 0.0 0.00 0.00 0.00 86 1002.4
20260507031522 16 30 0.0 0.0 0.00 0.00 0.00 85 1002.4
20260507031019 16 30 0.0 0.0 0.00 0.00 0.00 85 1002.4
20260507030519 16 30 0.0 0.0 0.00 0.00 0.00 85 1002.4
20260507030019 16 36 0.0 0.0 0.00 0.00 0.00 85 1002.4
20260507025520 15 36 0.0 0.0 0.00 0.00 0.00 85 1002.4
20260507025020 15 36 0.0 0.0 0.00 0.00 0.00 85 1002.0
20260507024519 15 36 0.0 0.0 0.00 0.00 0.00 85 1002.4
20260507024019 15 36 0.0 0.0 0.00 0.00 0.00 85 1002.4
20260507023520 15 36 0.0 0.0 0.00 0.00 0.00 85 1002.0
20260507023023 15 36 0.0 0.0 0.00 0.00 0.00 84 1002.0
20260507022520 15 36 0.0 0.0 0.00 0.00 0.00 84 1002.0
20260507022020 15 78 0.0 0.0 0.00 0.00 0.00 84 1001.7
20260507021520 15 78 0.0 0.0 0.00 0.00 0.00 84 1001.7
20260507021019 15 78 0.0 0.0 0.00 0.00 0.00 83 1001.7
20260507020520 15 78 0.0 0.0 0.00 0.00 0.00 84 1001.7
20260507020019 15 78 0.0 0.0 0.00 0.00 0.00 84 1002.0
20260507015520 15 78 0.0 0.0 0.00 0.00 0.00 84 1001.7
20260507015019 15 78 0.0 0.0 0.00 0.00 0.00 83 1001.7
20260507014519 15 78 0.0 0.0 0.00 0.00 0.00 83 1002.0
20260507014019 15 78 0.0 0.0 0.00 0.00 0.00 82 1002.0
20260507013520 15 78 0.0 0.0 0.00 0.00 0.00 82 1002.0
20260507013020 15 78 0.0 0.0 0.00 0.00 0.00 82 1001.7
20260507012520 16 78 0.0 0.0 0.00 0.00 0.00 81 1001.7
20260507012019 16 78 0.0 0.0 0.00 0.00 0.00 81 1001.7
20260507011520 16 78 0.0 0.0 0.00 0.00 0.00 81 1001.7
20260507011020 16 78 0.0 0.0 0.00 0.00 0.00 80 1001.7
20260507010519 16 78 0.0 0.0 0.00 0.00 0.00 79 1001.7
20260507010020 15 78 0.0 0.0 0.00 0.00 0.00 79 1001.7
20260507005519 15 78 0.0 0.0 0.00 0.00 0.00 78 1001.4
20260507005019 15 78 0.0 0.0 0.00 0.00 0.00 78 1001.4
20260507004520 15 78 0.0 0.0 0.00 0.00 0.00 78 1001.4
20260507004020 15 78 0.0 0.0 0.00 0.00 0.00 78 1001.4
20260507003519 15 78 0.0 0.0 0.00 0.00 0.00 78 1001.4
20260507003022 15 78 0.0 0.0 0.00 0.00 0.00 77 1001.0
20260507002521 16 78 0.0 0.0 0.00 0.00 0.00 76 1001.0
20260507002019 16 78 0.0 0.0 0.00 0.00 0.00 77 1000.7
20260507001519 16 78 0.0 0.0 0.00 0.00 0.00 76 1001.0
20260507001019 16 78 0.0 0.0 0.00 0.00 0.00 76 1000.7
20260507000522 16 78 0.0 0.0 0.00 0.00 0.00 75 1000.7
20260507000020 16 78 0.0 0.0 0.00 0.00 0.00 74 1001.0
20260506235519 16 78 0.0 0.0 0.00 0.00 0.00 74 1000.7
20260506235020 16 78 0.0 0.0 0.00 0.00 0.00 72 1000.7
20260506234523 16 78 0.0 0.0 0.00 0.00 0.00 72 1000.7
20260506234020 17 78 0.0 0.0 0.00 0.00 0.00 72 1001.0
20260506233519 17 78 0.0 0.0 0.00 0.00 0.00 71 1000.7
20260506233020 17 78 0.0 0.0 0.00 0.00 0.00 71 1001.0
20260506232519 17 78 0.0 0.0 0.00 0.00 0.00 70 1000.7
20260506232019 17 78 0.0 0.0 0.00 0.00 0.00 69 1000.7
20260506231519 17 78 0.0 0.0 0.00 0.00 0.00 68 1000.7
20260506231020 18 78 0.0 0.0 0.00 0.00 0.00 68 1000.7
20260506230519 18 78 0.0 0.0 0.00 0.00 0.00 67 1001.0
20260506230020 18 78 0.0 0.0 0.00 0.00 0.00 66 1001.0
20260506225520 18 78 0.0 0.0 0.00 0.00 0.00 65 1001.0
20260506225020 18 78 0.0 0.0 0.00 0.00 0.00 64 1001.0
20260506224521 18 78 0.0 0.0 0.00 0.00 0.00 63 1001.4
20260506224019 19 78 0.0 0.0 0.00 0.00 0.00 62 1001.7
20260506223519 18 78 0.0 0.0 0.00 0.00 0.00 60 1001.4
20260506223019 18 66 0.0 0.0 0.00 0.00 0.00 59 1001.7
20260506222521 17 30 1.6 1.6 0.00 0.00 0.00 59 1001.0
20260506222019 16 48 3.2 3.2 0.00 0.00 0.00 66 1001.4
20260506221520 16 24 0.0 0.0 0.00 0.00 0.00 67 1000.7
20260506221021 16 288 0.0 0.0 0.00 0.00 0.00 68 1000.7
20260506220520 16 288 0.0 0.0 0.00 0.00 0.00 69 1000.7
20260506220019 16 288 0.0 0.0 0.00 0.00 0.00 69 1000.3
20260506215519 16 288 0.0 0.0 0.00 0.00 0.00 68 1000.0
20260506215019 16 292 0.0 0.0 0.00 0.00 0.00 68 1000.3
20260506214519 16 288 0.0 0.0 0.00 0.00 0.00 69 1000.3
20260506214019 16 288 0.0 0.0 0.00 0.00 0.00 68 1000.0
20260506213519 16 288 0.0 0.0 0.00 0.00 0.00 69 1000.0
20260506213019 16 288 0.0 0.0 0.00 0.00 0.00 70 1000.3
20260506212519 16 292 0.0 0.0 0.00 0.00 0.00 70 1000.7
20260506212019 16 288 0.0 0.0 0.00 0.00 0.00 70 1000.3
20260506211519 16 288 0.0 0.0 0.00 0.00 0.00 70 1000.3
20260506211020 16 292 0.0 0.0 0.00 0.00 0.00 70 1000.3
20260506210519 16 292 0.0 0.0 0.00 0.00 0.00 70 1000.3